| time (UTC) | temp F | wind direction | speed knots | gust knots | rain 1hr in | rain 24hr in | rain mn in | humidity % | barometer mb |
| 20260906101526 | 68 | 300 | 0.0 | 0.0 | 0.00 | 0.71 | 0.01 | 97 | 1011.9 |
| 20260906101012 | 68 | 300 | 0.0 | 0.0 | 0.00 | 0.71 | 0.01 | 97 | 1011.9 |
| 20260906100518 | 68 | 300 | 0.0 | 0.0 | 0.00 | 0.71 | 0.01 | 97 | 1011.9 |
| 20260906100007 | 68 | 300 | 0.0 | 0.0 | 0.00 | 0.71 | 0.01 | 97 | 1011.9 |
| 20260906095504 | 68 | 300 | 0.0 | 0.0 | 0.00 | 0.71 | 0.01 | 97 | 1011.8 |
| 20260906095006 | 68 | 300 | 0.0 | 0.0 | 0.00 | 0.71 | 0.01 | 97 | 1011.8 |
| 20260906094524 | 68 | 300 | 0.0 | 0.0 | 0.00 | 0.71 | 0.01 | 97 | 1011.8 |
| 20260906094007 | 68 | 300 | 0.0 | 0.0 | 0.00 | 0.71 | 0.01 | 97 | 1011.7 |
| 20260906093508 | 69 | 300 | 0.0 | 0.0 | 0.00 | 0.71 | 0.01 | 97 | 1011.7 |
| 20260906093018 | 69 | 300 | 0.0 | 0.9 | 0.00 | 0.71 | 0.01 | 97 | 1011.5 |
| 20260906092510 | 69 | 300 | 0.0 | 0.9 | 0.00 | 0.71 | 0.01 | 97 | 1011.6 |
| 20260906092014 | 69 | 300 | 0.0 | 0.9 | 0.00 | 0.71 | 0.01 | 97 | 1011.7 |
| 20260906091520 | 69 | 286 | 0.0 | 0.0 | 0.00 | 0.71 | 0.01 | 97 | 1011.7 |
| 20260906091012 | 69 | 286 | 0.0 | 0.0 | 0.00 | 0.71 | 0.01 | 97 | 1011.7 |
| 20260906090518 | 69 | 286 | 0.0 | 0.0 | 0.00 | 0.71 | 0.01 | 97 | 1011.6 |
| 20260906090028 | 69 | 286 | 0.0 | 0.0 | 0.00 | 0.71 | 0.01 | 97 | 1011.5 |
| 20260906085512 | 69 | 286 | 0.0 | 0.0 | 0.00 | 0.71 | 0.01 | 97 | 1011.5 |
| 20260906085014 | 69 | 286 | 0.0 | 0.0 | 0.00 | 0.71 | 0.01 | 97 | 1011.5 |
| 20260906084536 | 69 | 286 | 0.0 | 0.0 | 0.00 | 0.71 | 0.01 | 97 | 1011.4 |
| 20260906084005 | 69 | 286 | 0.0 | 0.0 | 0.00 | 0.71 | 0.01 | 97 | 1011.4 |
| 20260906083507 | 69 | 286 | 0.0 | 0.0 | 0.00 | 0.71 | 0.01 | 97 | 1011.5 |
| 20260906083012 | 69 | 286 | 0.0 | 0.0 | 0.00 | 0.71 | 0.01 | 97 | 1011.4 |
| 20260906082508 | 69 | 286 | 0.0 | 0.0 | 0.00 | 0.71 | 0.01 | 97 | 1011.5 |
| 20260906082011 | 69 | 286 | 0.0 | 0.0 | 0.00 | 0.71 | 0.01 | 97 | 1011.6 |
| 20260906081536 | 69 | 286 | 0.0 | 0.0 | 0.00 | 0.71 | 0.01 | 97 | 1011.7 |
| 20260906081007 | 69 | 286 | 0.0 | 0.0 | 0.00 | 0.71 | 0.01 | 97 | 1011.6 |
| 20260906080515 | 69 | 286 | 0.0 | 0.0 | 0.00 | 0.71 | 0.01 | 97 | 1011.5 |
| 20260906080024 | 69 | 286 | 0.0 | 0.0 | 0.00 | 0.71 | 0.01 | 97 | 1011.4 |
| 20260906075513 | 69 | 286 | 0.0 | 0.0 | 0.00 | 0.71 | 0.01 | 97 | 1011.2 |
| 20260906075015 | 69 | 286 | 0.0 | 0.0 | 0.01 | 0.71 | 0.01 | 97 | 1011.1 |
| 20260906074531 | 69 | 286 | 0.0 | 0.0 | 0.01 | 0.71 | 0.01 | 97 | 1011.3 |
| 20260906074014 | 69 | 286 | 0.0 | 0.0 | 0.01 | 0.71 | 0.01 | 96 | 1011.4 |
| 20260906073514 | 69 | 286 | 0.0 | 0.0 | 0.01 | 0.71 | 0.01 | 96 | 1011.5 |
| 20260906073030 | 69 | 286 | 0.0 | 0.0 | 0.01 | 0.71 | 0.01 | 96 | 1011.5 |
| 20260906072504 | 69 | 286 | 0.0 | 0.0 | 0.01 | 0.71 | 0.01 | 96 | 1011.6 |
| 20260906072004 | 69 | 286 | 0.0 | 0.0 | 0.01 | 0.71 | 0.01 | 96 | 1011.6 |
| 20260906071511 | 69 | 286 | 0.0 | 0.0 | 0.01 | 0.71 | 0.01 | 96 | 1011.5 |
| 20260906071010 | 69 | 286 | 0.0 | 0.0 | 0.01 | 0.71 | 0.01 | 96 | 1011.5 |
| 20260906070513 | 69 | 286 | 0.0 | 0.0 | 0.01 | 0.71 | 0.01 | 96 | 1011.6 |
| 20260906070018 | 69 | 286 | 0.0 | 0.0 | 0.01 | 0.71 | 0.01 | 96 | 1011.5 |
| 20260906065512 | 69 | 286 | 0.0 | 0.0 | 0.01 | 0.71 | 0.01 | 96 | 1011.4 |
| 20260906065014 | 70 | 286 | 0.0 | 0.0 | 0.00 | 0.70 | 0.00 | 96 | 1011.5 |
| 20260906064526 | 70 | 286 | 0.0 | 0.0 | 0.00 | 0.70 | 0.00 | 96 | 1011.6 |
| 20260906064011 | 70 | 286 | 0.0 | 0.0 | 0.00 | 0.70 | 0.00 | 96 | 1011.6 |
| 20260906063513 | 70 | 286 | 0.0 | 0.0 | 0.00 | 0.70 | 0.00 | 96 | 1011.6 |
| 20260906063033 | 70 | 286 | 0.0 | 0.0 | 0.00 | 0.70 | 0.00 | 96 | 1011.5 |
| 20260906062518 | 70 | 286 | 0.0 | 0.0 | 0.00 | 0.70 | 0.00 | 96 | 1011.7 |
| 20260906062014 | 70 | 286 | 0.0 | 0.0 | 0.00 | 0.70 | 0.00 | 96 | 1011.7 |
| 20260906061538 | 70 | 286 | 0.0 | 0.0 | 0.00 | 0.70 | 0.00 | 96 | 1011.8 |
| 20260906061004 | 70 | 287 | 0.0 | 0.0 | 0.00 | 0.70 | 0.00 | 96 | 1011.9 |
| 20260906060503 | 70 | 286 | 0.0 | 0.0 | 0.00 | 0.70 | 0.00 | 95 | 1011.9 |
| 20260906060006 | 70 | 286 | 0.0 | 0.9 | 0.00 | 0.70 | 0.00 | 95 | 1011.8 |
| 20260906055503 | 70 | 286 | 0.0 | 0.9 | 0.00 | 0.70 | 0.00 | 95 | 1011.8 |
| 20260906055003 | 70 | 286 | 0.0 | 0.9 | 0.00 | 0.70 | 0.00 | 95 | 1011.9 |
| 20260906054503 | 70 | 286 | 0.0 | 0.9 | 0.00 | 0.70 | 0.00 | 95 | 1011.8 |
| 20260906054004 | 70 | 287 | 0.0 | 1.7 | 0.00 | 0.70 | 0.00 | 95 | 1012.0 |
| 20260906053504 | 70 | 284 | 0.0 | 1.7 | 0.00 | 0.70 | 0.00 | 95 | 1012.2 |
| 20260906053003 | 70 | 297 | 0.0 | 0.9 | 0.00 | 0.70 | 0.00 | 96 | 1012.2 |
| 20260906052504 | 70 | 298 | 0.0 | 0.9 | 0.00 | 0.70 | 0.00 | 96 | 1012.3 |
| 20260906052003 | 70 | 299 | 0.0 | 0.9 | 0.00 | 0.70 | 0.00 | 96 | 1012.4 |
| 20260906051504 | 70 | 299 | 0.0 | 0.9 | 0.00 | 0.70 | 0.00 | 96 | 1012.4 |
| 20260906051004 | 70 | 293 | 0.0 | 0.0 | 0.00 | 0.70 | 0.00 | 95 | 1012.4 |
| 20260906050503 | 70 | 293 | 0.0 | 0.9 | 0.00 | 0.70 | 0.00 | 95 | 1012.5 |
| 20260906050004 | 70 | 293 | 0.0 | 0.9 | 0.00 | 0.70 | 0.00 | 95 | 1012.5 |
| 20260906045503 | 70 | 293 | 0.0 | 0.9 | 0.00 | 0.70 | 0.00 | 95 | 1012.6 |
| 20260906045004 | 71 | 293 | 0.0 | 2.6 | 0.00 | 0.70 | 0.00 | 95 | 1012.7 |
| 20260906044506 | 71 | 293 | 0.0 | 2.6 | 0.00 | 0.70 | 0.00 | 95 | 1012.5 |
| 20260906044004 | 71 | 293 | 0.9 | 2.6 | 0.00 | 0.70 | 0.00 | 95 | 1012.6 |
| 20260906043504 | 71 | 288 | 0.0 | 0.9 | 0.00 | 0.70 | 0.00 | 96 | 1012.6 |
| 20260906043005 | 71 | 288 | 0.0 | 0.9 | 0.00 | 0.70 | 0.00 | 96 | 1012.7 |
| 20260906042502 | 71 | 288 | 0.0 | 0.0 | 0.00 | 0.70 | 0.00 | 95 | 1012.5 |
| 20260906042003 | 71 | 288 | 0.0 | 0.0 | 0.00 | 0.70 | 0.00 | 95 | 1012.5 |
| 20260906041505 | 71 | 288 | 0.0 | 0.9 | 0.00 | 0.70 | 0.00 | 95 | 1012.4 |
| 20260906041004 | 71 | 288 | 0.0 | 0.9 | 0.00 | 0.70 | 0.00 | 95 | 1012.4 |
| 20260906040503 | 71 | 288 | 0.0 | 0.9 | 0.00 | 0.70 | 0.00 | 95 | 1012.3 |
| 20260906040006 | 71 | 288 | 0.0 | 0.0 | 0.00 | 0.70 | 0.00 | 95 | 1012.4 |
| 20260906035502 | 71 | 288 | 0.0 | 0.0 | 0.00 | 0.70 | 0.70 | 95 | 1012.3 |
| 20260906035006 | 71 | 288 | 0.0 | 0.9 | 0.00 | 0.70 | 0.70 | 95 | 1012.4 |
| 20260906034509 | 71 | 288 | 0.0 | 0.9 | 0.00 | 0.70 | 0.70 | 95 | 1012.5 |
| 20260906034003 | 71 | 288 | 0.0 | 0.0 | 0.00 | 0.70 | 0.70 | 95 | 1012.4 |
| 20260906033502 | 71 | 288 | 0.0 | 0.0 | 0.00 | 0.70 | 0.70 | 95 | 1012.3 |
| 20260906033008 | 71 | 288 | 0.0 | 0.9 | 0.00 | 0.70 | 0.70 | 95 | 1012.3 |
| 20260906032503 | 71 | 288 | 0.0 | 0.9 | 0.00 | 0.70 | 0.70 | 95 | 1012.3 |
| 20260906032002 | 71 | 288 | 0.0 | 0.9 | 0.00 | 0.70 | 0.70 | 95 | 1012.4 |
| 20260906031504 | 71 | 288 | 0.0 | 0.9 | 0.00 | 0.70 | 0.70 | 95 | 1012.4 |
| 20260906031004 | 71 | 288 | 0.0 | 0.9 | 0.00 | 0.70 | 0.70 | 95 | 1012.3 |
| 20260906030504 | 71 | 288 | 0.0 | 0.9 | 0.00 | 0.70 | 0.70 | 95 | 1012.4 |
| 20260906030005 | 71 | 288 | 0.0 | 0.9 | 0.00 | 0.70 | 0.70 | 96 | 1012.6 |
| 20260906025503 | 71 | 288 | 0.0 | 0.9 | 0.00 | 0.70 | 0.70 | 95 | 1012.6 |
| 20260906025004 | 71 | 287 | 0.0 | 1.7 | 0.00 | 0.70 | 0.70 | 95 | 1012.8 |
| 20260906024508 | 71 | 287 | 0.0 | 1.7 | 0.00 | 0.70 | 0.70 | 96 | 1012.9 |
| 20260906024006 | 71 | 287 | 0.0 | 1.7 | 0.00 | 0.70 | 0.70 | 96 | 1012.7 |
| 20260906023504 | 71 | 285 | 0.9 | 1.7 | 0.00 | 0.70 | 0.70 | 96 | 1012.7 |
| 20260906023005 | 71 | 305 | 0.0 | 1.7 | 0.00 | 0.70 | 0.70 | 95 | 1012.8 |
| 20260906022506 | 71 | 305 | 0.0 | 1.7 | 0.00 | 0.70 | 0.70 | 95 | 1012.8 |
| 20260906022006 | 71 | 295 | 0.0 | 1.7 | 0.00 | 0.70 | 0.70 | 95 | 1012.7 |
| 20260906021511 | 71 | 296 | 0.0 | 0.9 | 0.00 | 0.70 | 0.70 | 95 | 1012.6 |
| 20260906021006 | 71 | 296 | 0.0 | 0.9 | 0.00 | 0.70 | 0.70 | 95 | 1012.4 |
| 20260906020506 | 71 | 295 | 0.0 | 0.9 | 0.00 | 0.70 | 0.70 | 95 | 1012.3 |
| 20260906020004 | 71 | 295 | 0.0 | 0.9 | 0.00 | 0.70 | 0.70 | 95 | 1012.3 |
| 20260906015506 | 71 | 296 | 0.0 | 0.0 | 0.00 | 0.70 | 0.70 | 95 | 1012.2 |
| 20260906015004 | 71 | 296 | 0.0 | 0.0 | 0.00 | 0.70 | 0.70 | 95 | 1012.2 |
| 20260906014506 | 71 | 296 | 0.0 | 0.9 | 0.00 | 0.70 | 0.70 | 95 | 1012.2 |
| 20260906014005 | 71 | 296 | 0.0 | 0.9 | 0.00 | 0.70 | 0.70 | 95 | 1012.3 |
| 20260906013503 | 71 | 296 | 0.0 | 0.9 | 0.00 | 0.70 | 0.70 | 95 | 1012.2 |
| 20260906013009 | 71 | 296 | 0.0 | 0.9 | 0.00 | 0.70 | 0.70 | 95 | 1012.2 |
| 20260906012507 | 71 | 296 | 0.0 | 0.0 | 0.00 | 0.70 | 0.70 | 95 | 1012.1 |
| 20260906012007 | 71 | 296 | 0.0 | 0.0 | 0.00 | 0.70 | 0.70 | 94 | 1012.0 |
| 20260906011512 | 71 | 296 | 0.0 | 0.0 | 0.00 | 0.70 | 0.70 | 94 | 1012.0 |
| 20260906011011 | 71 | 296 | 0.0 | 0.9 | 0.00 | 0.70 | 0.70 | 94 | 1011.9 |
| 20260906010505 | 71 | 296 | 0.0 | 0.9 | 0.00 | 0.70 | 0.70 | 95 | 1011.8 |
| 20260906010010 | 71 | 296 | 0.0 | 0.9 | 0.00 | 0.70 | 0.70 | 94 | 1011.8 |
| 20260906005507 | 71 | 296 | 0.0 | 0.9 | 0.00 | 0.70 | 0.70 | 94 | 1011.9 |
| 20260906005008 | 71 | 296 | 0.0 | 0.9 | 0.00 | 0.70 | 0.70 | 94 | 1011.9 |
| 20260906004505 | 71 | 295 | 0.0 | 1.7 | 0.00 | 0.70 | 0.70 | 94 | 1012.1 |
| 20260906004003 | 71 | 295 | 0.0 | 1.7 | 0.00 | 0.70 | 0.70 | 94 | 1012.2 |
| 20260906003503 | 71 | 287 | 0.0 | 0.9 | 0.00 | 0.70 | 0.70 | 94 | 1012.3 |
| 20260906003008 | 72 | 286 | 0.0 | 0.9 | 0.00 | 0.70 | 0.70 | 94 | 1012.4 |
| 20260906002506 | 72 | 287 | 0.0 | 0.9 | 0.00 | 0.70 | 0.70 | 94 | 1012.5 |
| 20260906002006 | 72 | 287 | 0.0 | 0.9 | 0.00 | 0.70 | 0.70 | 94 | 1012.4 |
| 20260906001508 | 72 | 305 | 0.0 | 1.7 | 0.00 | 0.70 | 0.70 | 94 | 1012.4 |
| 20260906001008 | 72 | 305 | 0.0 | 1.7 | 0.00 | 0.70 | 0.70 | 93 | 1012.4 |
| 20260906000507 | 72 | 319 | 0.9 | 0.9 | 0.00 | 0.70 | 0.70 | 93 | 1012.3 |
| 20260906000012 | 72 | 321 | 0.0 | 0.9 | 0.00 | 0.70 | 0.70 | 93 | 1012.4 |
| 20260905235507 | 72 | 321 | 0.0 | 0.9 | 0.00 | 0.70 | 0.70 | 93 | 1012.4 |
| 20260905235007 | 72 | 321 | 0.0 | 0.0 | 0.00 | 0.70 | 0.70 | 93 | 1012.4 |
| 20260905234512 | 73 | 321 | 0.0 | 0.0 | 0.00 | 0.70 | 0.70 | 93 | 1012.5 |
| 20260905234009 | 73 | 321 | 0.0 | 0.9 | 0.00 | 0.70 | 0.70 | 93 | 1012.5 |
| 20260905233507 | 73 | 321 | 0.0 | 0.9 | 0.00 | 0.70 | 0.70 | 93 | 1012.7 |
| 20260905233006 | 73 | 321 | 0.0 | 0.9 | 0.00 | 0.70 | 0.70 | 93 | 1012.8 |
| 20260905232508 | 73 | 321 | 0.0 | 0.9 | 0.00 | 0.70 | 0.70 | 93 | 1012.7 |
| 20260905232004 | 73 | 321 | 0.0 | 0.9 | 0.00 | 0.70 | 0.70 | 93 | 1012.8 |
| 20260905231511 | 74 | 321 | 0.0 | 0.9 | 0.00 | 0.70 | 0.70 | 94 | 1012.6 |
| 20260905231007 | 74 | 321 | 0.0 | 0.0 | 0.00 | 0.70 | 0.70 | 94 | 1012.3 |
| 20260905230507 | 73 | 321 | 0.0 | 0.0 | 0.00 | 0.70 | 0.70 | 94 | 1012.1 |
| 20260905230014 | 73 | 321 | 0.0 | 0.0 | 0.00 | 0.70 | 0.70 | 94 | 1011.9 |
| 20260905225508 | 73 | 321 | 0.0 | 0.9 | 0.00 | 0.70 | 0.70 | 94 | 1011.9 |
| 20260905225006 | 73 | 321 | 0.0 | 0.9 | 0.00 | 0.70 | 0.70 | 93 | 1011.7 |
| 20260905224512 | 73 | 321 | 0.0 | 0.9 | 0.00 | 0.70 | 0.70 | 93 | 1011.6 |
| 20260905224009 | 73 | 215 | 0.0 | 2.6 | 0.00 | 0.70 | 0.70 | 92 | 1011.7 |
| 20260905223508 | 72 | 211 | 0.0 | 5.2 | 0.00 | 0.70 | 0.70 | 92 | 1011.8 |
| 20260905223030 | 72 | 134 | 0.9 | 5.2 | 0.01 | 0.70 | 0.70 | 91 | 1011.7 |
| 20260905222509 | 71 | 305 | 0.0 | 1.7 | 0.01 | 0.70 | 0.70 | 93 | 1011.5 |
| 20260905222009 | 71 | 305 | 0.0 | 1.7 | 0.01 | 0.70 | 0.70 | 93 | 1011.3 |
| 20260905221524 | 71 | 324 | 0.0 | 0.9 | 0.01 | 0.70 | 0.70 | 93 | 1011.2 |
| 20260905221004 | 71 | 90 | 0.0 | 0.9 | 0.01 | 0.70 | 0.70 | 93 | 1011.3 |
| 20260905220505 | 71 | 126 | 0.0 | 0.9 | 0.01 | 0.70 | 0.70 | 94 | 1011.1 |
| 20260905220012 | 71 | 126 | 0.0 | 1.7 | 0.02 | 0.70 | 0.70 | 93 | 1010.7 |
| 20260905215509 | 71 | 126 | 0.0 | 2.6 | 0.14 | 0.70 | 0.70 | 92 | 1010.6 |
| 20260905215006 | 71 | 156 | 0.9 | 2.6 | 0.33 | 0.70 | 0.70 | 92 | 1010.6 |
| 20260905214517 | 71 | 318 | 0.0 | 2.6 | 0.60 | 0.70 | 0.70 | 93 | 1010.8 |
| 20260905214008 | 72 | 328 | 0.9 | 2.6 | 0.65 | 0.70 | 0.70 | 92 | 1010.9 |
| 20260905213513 | 72 | 298 | 0.0 | 5.2 | 0.66 | 0.70 | 0.70 | 93 | 1011.1 |
| 20260905213016 | 72 | 351 | 1.7 | 5.2 | 0.69 | 0.69 | 0.69 | 92 | 1011.2 |
| 20260905212510 | 71 | 312 | 0.0 | 3.5 | 0.69 | 0.69 | 0.69 | 93 | 1011.3 |
| 20260905212015 | 72 | 356 | 0.9 | 3.5 | 0.69 | 0.69 | 0.69 | 93 | 1011.1 |
| 20260905211536 | 72 | 20 | 0.0 | 2.6 | 0.69 | 0.69 | 0.69 | 94 | 1011.5 |
| 20260905211012 | 71 | 292 | 0.0 | 1.7 | 0.69 | 0.69 | 0.69 | 93 | 1010.6 |
| 20260905210513 | 71 | 292 | 0.9 | 6.1 | 0.69 | 0.69 | 0.69 | 91 | 1010.9 |
| 20260905210009 | 71 | 66 | 0.9 | 14.8 | 0.68 | 0.68 | 0.68 | 89 | 1010.9 |
| 20260905205505 | 72 | 302 | 2.6 | 21.7 | 0.56 | 0.56 | 0.56 | 86 | 1012.3 |
| 20260905205004 | 74 | 314 | 3.5 | 21.7 | 0.37 | 0.37 | 0.37 | 82 | 1012.9 |
| 20260905204513 | 78 | 312 | 3.5 | 10.4 | 0.10 | 0.10 | 0.10 | 73 | 1012.1 |
| 20260905204007 | 81 | 303 | 4.3 | 12.2 | 0.05 | 0.05 | 0.05 | 65 | 1011.7 |
| 20260905203508 | 89 | 24 | 4.3 | 12.2 | 0.04 | 0.04 | 0.04 | 57 | 1011.4 |
| 20260905203016 | 96 | 336 | 1.7 | 6.1 | 0.00 | 0.00 | 0.00 | 53 | 1010.7 |
| 20260905202512 | 98 | 37 | 2.6 | 6.1 | 0.00 | 0.00 | 0.00 | 49 | 1010.4 |
| 20260905202002 | 100 | 312 | 1.7 | 4.3 | 0.00 | 0.00 | 0.00 | 44 | 1010.3 |
| 20260905201504 | 100 | 308 | 0.9 | 2.6 | 0.00 | 0.00 | 0.00 | 45 | 1010.1 |
| 20260905201003 | 99 | 311 | 0.9 | 1.7 | 0.00 | 0.00 | 0.00 | 45 | 1010.3 |
| 20260905200503 | 100 | 55 | 0.0 | 3.5 | 0.00 | 0.00 | 0.00 | 43 | 1010.5 |
| 20260905200004 | 101 | 317 | 1.7 | 3.5 | 0.00 | 0.00 | 0.00 | 43 | 1010.4 |
| 20260905195506 | 101 | 231 | 0.0 | 1.7 | 0.00 | 0.00 | 0.00 | 45 | 1010.3 |
| 20260905195004 | 100 | 106 | 0.0 | 1.7 | 0.00 | 0.00 | 0.00 | 45 | 1010.3 |
| 20260905194508 | 100 | 58 | 0.9 | 1.7 | 0.00 | 0.00 | 0.00 | 47 | 1010.5 |
| 20260905194004 | 99 | 108 | 0.9 | 0.9 | 0.00 | 0.00 | 0.00 | 47 | 1010.5 |
| 20260905193507 | 98 | 69 | 0.9 | 0.9 | 0.00 | 0.00 | 0.00 | 48 | 1010.5 |
| 20260905193014 | 97 | 48 | 0.0 | 2.6 | 0.00 | 0.00 | 0.00 | 48 | 1010.6 |
| 20260905192502 | 98 | 43 | 0.0 | 2.6 | 0.00 | 0.00 | 0.00 | 47 | 1010.6 |
| 20260905192005 | 99 | 17 | 0.9 | 2.6 | 0.00 | 0.00 | 0.00 | 47 | 1010.8 |
| 20260905191503 | 99 | 318 | 0.9 | 2.6 | 0.00 | 0.00 | 0.00 | 46 | 1010.8 |
| 20260905191004 | 100 | 288 | 0.9 | 4.3 | 0.00 | 0.00 | 0.00 | 45 | 1010.8 |
| 20260905190504 | 100 | 321 | 1.7 | 4.3 | 0.00 | 0.00 | 0.00 | 44 | 1010.9 |
| 20260905190003 | 100 | 337 | 1.7 | 4.3 | 0.00 | 0.00 | 0.00 | 44 | 1010.9 |
| 20260905185502 | 101 | 319 | 0.9 | 1.7 | 0.00 | 0.00 | 0.00 | 45 | 1011.0 |
| 20260905185002 | 101 | 115 | 0.9 | 1.7 | 0.00 | 0.00 | 0.00 | 47 | 1011.2 |
| 20260905184506 | 100 | 7 | 0.9 | 1.7 | 0.00 | 0.00 | 0.00 | 46 | 1011.3 |
| 20260905184003 | 100 | 29 | 0.9 | 2.6 | 0.00 | 0.00 | 0.00 | 47 | 1011.4 |
| 20260905183504 | 99 | 321 | 0.9 | 2.6 | 0.00 | 0.00 | 0.00 | 48 | 1011.5 |
| 20260905183010 | 99 | 266 | 0.0 | 1.7 | 0.00 | 0.00 | 0.00 | 49 | 1011.7 |
| 20260905182505 | 97 | 264 | 0.0 | 1.7 | 0.00 | 0.00 | 0.00 | 51 | 1011.8 |
| 20260905182005 | 97 | 290 | 0.0 | 1.7 | 0.00 | 0.00 | 0.00 | 50 | 1011.9 |
| 20260905181516 | 98 | 334 | 0.0 | 1.7 | 0.00 | 0.00 | 0.00 | 49 | 1012.1 |
| 20260905181010 | 99 | 295 | 0.9 | 3.5 | 0.00 | 0.00 | 0.00 | 49 | 1012.2 |
| 20260905180502 | 99 | 307 | 0.9 | 3.5 | 0.00 | 0.00 | 0.00 | 48 | 1012.3 |
| 20260905180004 | 100 | 312 | 0.9 | 2.6 | 0.00 | 0.00 | 0.00 | 48 | 1012.2 |
| 20260905175503 | 100 | 346 | 0.0 | 1.7 | 0.00 | 0.00 | 0.00 | 47 | 1012.3 |
| 20260905175003 | 100 | 271 | 0.9 | 3.5 | 0.00 | 0.00 | 0.00 | 47 | 1012.4 |
| 20260905174502 | 100 | 326 | 0.9 | 3.5 | 0.00 | 0.00 | 0.00 | 47 | 1012.4 |
| 20260905174004 | 99 | 262 | 0.0 | 2.6 | 0.00 | 0.00 | 0.00 | 50 | 1012.5 |
| 20260905173504 | 98 | 314 | 0.9 | 2.6 | 0.00 | 0.00 | 0.00 | 50 | 1012.6 |
| 20260905173007 | 98 | 321 | 0.9 | 2.6 | 0.00 | 0.00 | 0.00 | 51 | 1012.7 |
| 20260905172503 | 97 | 302 | 0.9 | 2.6 | 0.00 | 0.00 | 0.00 | 52 | 1012.7 |
| 20260905171523 | 96 | 326 | 0.9 | 2.6 | 0.00 | 0.00 | 0.00 | 53 | 1012.8 |
| 20260905171013 | 97 | 333 | 0.9 | 1.7 | 0.00 | 0.00 | 0.00 | 52 | 1012.9 |
| 20260905170506 | 98 | 123 | 0.0 | 2.6 | 0.00 | 0.00 | 0.00 | 53 | 1013.0 |
| 20260905170024 | 97 | 134 | 0.9 | 3.5 | 0.00 | 0.00 | 0.00 | 53 | 1013.0 |
| 20260905165512 | 97 | 259 | 0.9 | 4.3 | 0.00 | 0.00 | 0.00 | 53 | 1013.1 |
| 20260905165010 | 96 | 314 | 2.6 | 4.3 | 0.00 | 0.00 | 0.00 | 54 | 1013.1 |
| 20260905164503 | 96 | 345 | 0.0 | 3.5 | 0.00 | 0.00 | 0.00 | 54 | 1013.3 |
| 20260905164003 | 96 | 288 | 1.7 | 3.5 | 0.00 | 0.00 | 0.00 | 54 | 1013.4 |
| 20260905163503 | 97 | 297 | 1.7 | 3.5 | 0.00 | 0.00 | 0.00 | 54 | 1013.5 |
| 20260905163004 | 96 | 314 | 1.7 | 3.5 | 0.00 | 0.00 | 0.00 | 55 | 1013.6 |
| 20260905162503 | 96 | 11 | 0.9 | 2.6 | 0.00 | 0.00 | 0.00 | 55 | 1013.5 |
| 20260905162007 | 96 | 291 | 0.0 | 3.5 | 0.00 | 0.00 | 0.00 | 55 | 1013.6 |
| 20260905161505 | 95 | 307 | 0.9 | 3.5 | 0.00 | 0.00 | 0.00 | 56 | 1013.6 |
| 20260905161003 | 95 | 234 | 0.9 | 1.7 | 0.00 | 0.00 | 0.00 | 57 | 1013.7 |
| 20260905160507 | 95 | 116 | 0.9 | 4.3 | 0.00 | 0.00 | 0.00 | 58 | 1013.7 |
| 20260905160024 | 94 | 63 | 0.9 | 4.3 | 0.00 | 0.00 | 0.00 | 59 | 1013.7 |
| 20260905155506 | 94 | 271 | 0.9 | 3.5 | 0.00 | 0.00 | 0.00 | 59 | 1013.8 |
| 20260905155007 | 93 | 331 | 0.0 | 5.2 | 0.00 | 0.00 | 0.00 | 61 | 1013.9 |
| 20260905154540 | 93 | 335 | 1.7 | 5.2 | 0.00 | 0.00 | 0.00 | 60 | 1013.9 |
| 20260905154010 | 93 | 290 | 0.9 | 4.3 | 0.00 | 0.00 | 0.00 | 61 | 1013.9 |
| 20260905153513 | 93 | 46 | 0.9 | 2.6 | 0.00 | 0.00 | 0.00 | 62 | 1013.9 |
| 20260905153005 | 93 | 86 | 0.9 | 2.6 | 0.00 | 0.00 | 0.00 | 62 | 1013.9 |
| 20260905152504 | 92 | 278 | 0.9 | 3.5 | 0.00 | 0.00 | 0.00 | 62 | 1014.1 |
| 20260905152004 | 92 | 328 | 0.9 | 3.5 | 0.00 | 0.00 | 0.00 | 63 | 1014.3 |
| 20260905151505 | 92 | 304 | 0.9 | 3.5 | 0.00 | 0.00 | 0.00 | 63 | 1014.3 |
| 20260905151003 | 91 | 125 | 0.9 | 4.3 | 0.00 | 0.00 | 0.00 | 65 | 1014.3 |
| 20260905150504 | 91 | 317 | 0.9 | 4.3 | 0.00 | 0.00 | 0.00 | 65 | 1014.3 |
| 20260905150006 | 91 | 321 | 0.9 | 3.5 | 0.00 | 0.00 | 0.00 | 66 | 1014.4 |
| 20260905145506 | 90 | 286 | 0.9 | 3.5 | 0.00 | 0.00 | 0.00 | 66 | 1014.5 |
| 20260905145008 | 90 | 304 | 0.9 | 3.5 | 0.00 | 0.00 | 0.00 | 67 | 1014.5 |
| 20260905144512 | 89 | 304 | 0.9 | 4.3 | 0.00 | 0.00 | 0.00 | 68 | 1014.5 |
| 20260905144009 | 89 | 15 | 0.9 | 4.3 | 0.00 | 0.00 | 0.00 | 70 | 1014.7 |
| 20260905143508 | 88 | 322 | 0.9 | 2.6 | 0.00 | 0.00 | 0.00 | 70 | 1014.8 |
| 20260905143018 | 87 | 290 | 0.0 | 3.5 | 0.00 | 0.00 | 0.00 | 72 | 1014.8 |
| 20260905142512 | 87 | 243 | 0.9 | 3.5 | 0.00 | 0.00 | 0.00 | 73 | 1014.7 |
| 20260905142015 | 86 | 15 | 1.7 | 2.6 | 0.00 | 0.00 | 0.00 | 73 | 1014.7 |
| 20260905141528 | 85 | 107 | 0.9 | 3.5 | 0.00 | 0.00 | 0.00 | 75 | 1014.7 |
| 20260905141006 | 85 | 316 | 0.9 | 3.5 | 0.00 | 0.00 | 0.00 | 76 | 1014.7 |
| 20260905140504 | 84 | 46 | 0.0 | 3.5 | 0.00 | 0.00 | 0.00 | 77 | 1014.7 |
| 20260905140005 | 84 | 330 | 0.9 | 3.5 | 0.00 | 0.00 | 0.00 | 77 | 1014.7 |
| 20260905135504 | 84 | 304 | 0.0 | 1.7 | 0.00 | 0.00 | 0.00 | 79 | 1014.7 |
| 20260905135004 | 83 | 110 | 0.0 | 2.6 | 0.00 | 0.00 | 0.00 | 79 | 1014.6 |
| 20260905134510 | 83 | 355 | 0.9 | 3.5 | 0.00 | 0.00 | 0.00 | 80 | 1014.6 |
| 20260905134010 | 82 | 269 | 0.0 | 3.5 | 0.00 | 0.00 | 0.00 | 81 | 1014.7 |
| 20260905133507 | 82 | 325 | 0.9 | 3.5 | 0.00 | 0.00 | 0.00 | 81 | 1014.7 |
| 20260905133016 | 81 | 300 | 0.0 | 2.6 | 0.00 | 0.00 | 0.00 | 82 | 1014.7 |
| 20260905132512 | 81 | 320 | 0.0 | 2.6 | 0.00 | 0.00 | 0.00 | 83 | 1014.9 |
| 20260905132015 | 81 | 305 | 0.9 | 2.6 | 0.00 | 0.00 | 0.00 | 84 | 1014.8 |
| 20260905131523 | 80 | 309 | 0.0 | 2.6 | 0.00 | 0.00 | 0.00 | 84 | 1014.8 |
| 20260905131012 | 80 | 313 | 0.9 | 2.6 | 0.00 | 0.00 | 0.00 | 85 | 1014.8 |
| 20260905130515 | 80 | 308 | 0.0 | 2.6 | 0.00 | 0.00 | 0.00 | 86 | 1014.9 |
| 20260905130029 | 79 | 308 | 0.0 | 2.6 | 0.00 | 0.00 | 0.00 | 86 | 1014.9 |
| 20260905125507 | 79 | 122 | 0.0 | 0.9 | 0.00 | 0.00 | 0.00 | 87 | 1015.0 |
| 20260905125002 | 79 | 194 | 0.0 | 0.9 | 0.00 | 0.00 | 0.00 | 88 | 1015.0 |
| 20260905124508 | 78 | 287 | 0.0 | 1.7 | 0.00 | 0.00 | 0.00 | 89 | 1015.0 |
| 20260905124005 | 78 | 320 | 0.0 | 1.7 | 0.00 | 0.00 | 0.00 | 89 | 1014.8 |
| 20260905123505 | 78 | 341 | 0.0 | 0.9 | 0.00 | 0.00 | 0.00 | 90 | 1014.9 |
| 20260905123009 | 77 | 237 | 0.0 | 0.9 | 0.00 | 0.00 | 0.00 | 90 | 1014.9 |
| 20260905122513 | 77 | 236 | 0.0 | 0.9 | 0.00 | 0.00 | 0.00 | 91 | 1014.8 |
| 20260905122011 | 77 | 236 | 0.0 | 0.9 | 0.00 | 0.00 | 0.00 | 91 | 1014.9 |
| 20260905121519 | 77 | 259 | 0.0 | 0.9 | 0.00 | 0.00 | 0.00 | 92 | 1014.7 |
| 20260905121010 | 76 | 255 | 0.0 | 0.9 | 0.00 | 0.00 | 0.00 | 92 | 1014.7 |
| 20260905120512 | 76 | 225 | 0.0 | 0.9 | 0.00 | 0.00 | 0.00 | 93 | 1014.6 |
| 20260905120027 | 76 | 225 | 0.0 | 0.9 | 0.00 | 0.00 | 0.00 | 93 | 1014.6 |
| 20260905115516 | 76 | 224 | 0.0 | 0.9 | 0.00 | 0.00 | 0.00 | 93 | 1014.5 |
| 20260905115013 | 76 | 224 | 0.0 | 0.9 | 0.00 | 0.00 | 0.00 | 93 | 1014.5 |
| 20260905114528 | 75 | 224 | 0.0 | 0.9 | 0.00 | 0.00 | 0.00 | 93 | 1014.5 |
| 20260905114005 | 75 | 217 | 0.0 | 0.9 | 0.00 | 0.00 | 0.00 | 94 | 1014.4 |
| 20260905113508 | 75 | 216 | 0.0 | 0.9 | 0.00 | 0.00 | 0.00 | 94 | 1014.3 |
| 20260905113008 | 75 | 216 | 0.0 | 0.9 | 0.00 | 0.00 | 0.00 | 94 | 1014.2 |
| 20260905112506 | 75 | 214 | 0.0 | 0.0 | 0.00 | 0.00 | 0.00 | 94 | 1014.2 |
| 20260905112008 | 75 | 214 | 0.0 | 0.0 | 0.00 | 0.00 | 0.00 | 94 | 1014.2 |
| 20260905111514 | 75 | 213 | 0.0 | 0.0 | 0.00 | 0.00 | 0.00 | 94 | 1014.2 |
| 20260905111010 | 75 | 213 | 0.0 | 0.0 | 0.00 | 0.00 | 0.00 | 94 | 1014.2 |
| 20260905110513 | 75 | 214 | 0.0 | 0.0 | 0.00 | 0.00 | 0.00 | 93 | 1014.1 |
| 20260905110018 | 75 | 214 | 0.0 | 0.0 | 0.00 | 0.00 | 0.00 | 93 | 1014.1 |
| 20260905105512 | 75 | 214 | 0.0 | 0.0 | 0.00 | 0.00 | 0.00 | 94 | 1014.0 |
| 20260905105015 | 75 | 214 | 0.0 | 0.0 | 0.00 | 0.00 | 0.00 | 94 | 1014.1 |
| 20260905104540 | 75 | 214 | 0.0 | 0.0 | 0.00 | 0.00 | 0.00 | 94 | 1014.0 |
| 20260905104015 | 75 | 214 | 0.0 | 0.0 | 0.00 | 0.00 | 0.00 | 93 | 1013.9 |
| 20260905103515 | 75 | 213 | 0.0 | 0.0 | 0.00 | 0.00 | 0.00 | 94 | 1014.0 |
| 20260905103033 | 75 | 214 | 0.0 | 0.0 | 0.00 | 0.00 | 0.00 | 93 | 1014.0 |
| 20260905102504 | 75 | 214 | 0.0 | 0.0 | 0.00 | 0.00 | 0.00 | 93 | 1013.8 |
| 20260905102007 | 75 | 214 | 0.0 | 0.0 | 0.00 | 0.00 | 0.00 | 93 | 1013.8 |